Showing default

AZERSPACE 2/INTELSAT 38, 43632

Orbit data source: Space-Track

AZERSPACE 2/INTELSAT 38, 43632 is a payload satellite owned by Azerkosmos (AZ) in GEO that was launched on Tue, 25 Sep 2018 UTC via an ARIANE 5ECA launch vehicle from the French Guiana (FRGUI). Payloads include a variety of satellites, spacecraft, and rockets equipped with specific instruments for various scientific and technological missions. These include communications satellites like Starlink; space stations such as the ISS; scientific satellites like the Hubble; Earth observation satellites from companies like Planet Labs, Umbra, and HawkEye 360; GPS; miniature CubeSats for education and research; and military/defense satellites.

Not visible in the next 10 days
AZERSPACE 2/INTELSAT 38 details
Identifier
43632, 2018-074A
Orbit
GEO
Last TLE update9 hours ago
Origin
Flag of AZAzerkosmos (AZ / AZER)
ManufacturerMaxar SSL
MissionOperational Civil Communications
Bus & MotorSSL-1300, R-4D
Mass3,500 kg wet, ~2,000 kg dry
Launch date (UTC)
2018-09-25 (6 years ago)
Launch vehicle
ARIANE 5ECA
Launch site
French Guiana (FRGUI)
Object type
Payload
Rocket body
Debris
Shape & HBRBox + 2 Pan, 27 m
Radar Cross Section36.085 m², Large (>1 m²)

Expand to show TLE details & history

TLE from 9 hours ago
0 AZERSPACE 2/INTELSAT 38
1 43632U 18074A   24361.18106394  .00000165  00000-0  00000-0 0  9998
2 43632   0.0186  13.1228 0001797 294.5101 257.8274  1.00272191 23056
Epoch: 2024-12-26T04:20Z
Definitive object data (Epoch: 2024-12-26T04:20:43.924Z)
Latitude-0.01281°
Longitude45.08546°
Altitude35,787.542 km
Speed3.075 km/s
True Right ascension13h 41m 43s
True Declination0° 00' 46"
Sunlit
Object was in daylight at TLE epoch
Visualization TLE readout
Latitude-0.02037°
Longitude176.70904°
Altitude35,779.338 km
Speed3.075 km/s
Apparent Right ascension22h 40m 13s
Apparent Declination-5° 01' 28"
Sunlit
Object is in daylight
Visualization observer readout
Local Sidereal Time12:27:17
Azimuth41.699° NE
Elevation-47.593°
Doppler factor1
Orbital elements
Apogee altitude35,795.129 km
Perigee altitude35,779.974 km
Semi-major axis42,165.689 km
Eccentricity0.0001797
Inclination0.0186°
RAAN13.1228°
Arg. of periapsis294.5101°
True anomaly257.80727°
Mean anomaly257.8274°
Eccentric anomaly257.81734°
Mean motion0.25067 °/min
BSTARUnknown
Orbital period1436.14 mins
Loading historical data...
43632 neighbors
Authenticating...
Loading maneuver chart data...
Loading historical data...
Loading historical data...
Loading historical data...
Loading historical data...
Loading historical data...
Loading historical data...
Loading historical data...
Other satellites on launch #74 in the year 2018 (2018-09-25 UTC)

AZERSPACE 2/INTELSAT 38 Visibility forecast

Observer location: undefined°, undefined

AZERSPACE 2/INTELSAT 38 is not visible in the next 10 days
Span
Click to sort rows by Start time (UTC) header in descending order
Start Az.
Max El. time (UTC)
Max El. Az.
Max El.
End time (UTC)
End Az.
|